Location: Eekwerd
(53.3234°N, 6.7984°E)
Time: 20:56:34
(UTC+00:00)

Cosmos 1980 - Pass Details

Date: 15 May 2026
Orbit: 838 x 845 km, 71.0° (Epoch: 7 June)

Event Time Altitude Azimuth Distance (km) Brightness Sun altitude
Rises 22:39:29 0° 328° (NNW) 3,407 8.2 -16.8°
Reaches altitude 10° 22:41:57 10° 330° (NNW) 2,470 7.3 -16.9°
Maximum altitude 22:47:38 77° 56° (NE) 869 3.8 -17.1°
Enters shadow 22:51:11 24° 141° (SE) 1,689 4.8 -17.2°
